Temperature
18 18 18 18 18 18 18 18 18 18 18 18 18 18 18 18 18 18 18 18 18 18 18 18 18 18 18 17 17 17 17 17 17 17 17 17 17 17 17 17 16 16 16
18 18 18 18 18 18 18 18 18 18 18 18 18 18 18 18 18 18 18 18 18 18 18 18 18 18 18 17 17 17 17 17 17 17 17 17 17 17 17 17 16 16 16
18 18 18 18 18 18 18 18 18 18 18 18 18 18 18 18 18 18 18 18 18 18 18 18 18 18 18 17 17 17 17 17 17 17 17 17 17 17 17 17 17 17 17
18 18 18 18 18 18 18 18 18 18 18 18 18 18 18 18 18 18 18 18 18 18 18 18 18 18 18 18 17 17 17 17 17 17 17 17 17 17 17 17 17 17 16
18 18 18 18 18 18 18 18 18 18 18 18 18 18 19 19 18 18 18 18 18 18 18 18 18 18 18 18 18 17 17 17 17 17 17 17 17 17 17 17 17 17 16
18 18 18 18 18 18 18 18 18 18 18 18 19 19 19 19 19 19 19 19 18 18 18 18 18 18 18 18 18 17 17 17 17 17 17 17 17 17 17 17 17 17 17
18 18 18 18 18 18 18 18 18 18 18 18 18 19 19 19 19 19 19 19 19 18 18 18 18 18 18 18 18 17 17 17 17 17 17 17 17 17 17 17 17 17 16
18 18 18 18 18 18 18 18 18 18 18 18 18 19 19 20 19 19 19 18 18 18 18 18 18 18 17 17 17 17 17 17 17 17 17 17 17 17 17 17 17 17 16
18 18 18 18 18 18 18 18 18 18 18 18 18 19 19 20 20 19 19 18 18 18 18 18 18 18 17 17 17 17 17 17 17 17 17 17 17 17 17 17 17 17 16
18 18 18 18 18 18 18 18 18 18 18 18 18 18 18 19 19 19 19 19 18 18 18 18 18 18 17 17 17 17 17 17 17 17 17 17 17 17 17 16 16 16 16
18 18 18 18 18 18 18 18 18 18 18 18 18 18 18 18 18 19 19 19 18 18 18 18 18 18 17 17 17 17 17 17 17 17 17 17 17 17 16 16 16 16 16
18 18 18 18 18 18 18 18 18 18 18 18 18 18 18 18 18 18 19 18 18 18 18 18 18 17 17 17 17 17 17 17 17 17 17 17 16 16 16 16 16 16 16
18 18 18 18 18 18 18 18 18 18 17 17 17 17 18 18 18 18 18 18 18 18 18 18 18 18 17 17 17 17 17 17 17 17 17 16 16 16 16 16 16 16 16
18 18 18 18 18 18 18 18 17 17 17 17 17 17 17 17 17 17 17 18 18 18 18 18 18 17 17 17 17 17 16 17 17 16 16 16 16 16 16 16 16 16 16
18 18 18 18 18 18 18 18 17 17 17 17 17 17 17 17 17 17 17 17 18 18 18 18 17 17 17 17 17 16 16 16 16 16 16 16 16 16 16 16 16 16 16
18 18 18 17 17 17 17 17 17 17 17 17 17 17 17 17 17 17 17 17 17 17 18 18 17 17 17 16 16 16 16 16 16 16 16 16 16 16 16 16 16 16 15
18 18 18 17 17 17 17 17 17 17 17 16 16 16 16 16 16 16 16 16 16 16 17 17 17 17 16 16 16 16 16 16 16 16 16 16 16 16 16 16 15 15 15
18 18 17 17 17 17 17 17 16 16 16 16 16 16 16 16 16 16 16 16 16 16 16 16 16 16 16 16 15 16 16 16 16 16 16 16 16 15 15 15 15 15 15
18 17 17 17 17 17 16 16 16 16 16 16 16 15 15 15 15 15 15 15 15 16 15 15 16 16 16 16 15 15 15 15 15 15 15 15 15 15 15 15 15 15 15
17 17 17 17 17 16 16 16 16 16 16 15 15 15 15 15 15 15 15 15 15 15 15 15 15 15 15 15 15 15 15 15 15 15 15 15 15 15 15 15 15 14 14
17 17 17 17 16 16 16 16 16 15 15 15 15 15 15 15 15 15 15 14 14 15 15 15 15 15 15 15 15 15 15 15 15 14 14 14 14 14 14 14 14 14 14
17 16 16 16 16 16 16 16 15 15 15 15 14 15 15 14 14 14 15 14 14 14 14 14 14 14 14 14 14 14 14 14 14 14 14 14 14 14 14 14 14 14 14
16 16 16 16 16 16 16 16 15 15 14 14 14 14 14 14 14 14 14 14 14 14 14 14 14 14 13 14 13 13 13 13 13 13 13 13 13 13 13 13 13 13 13
16 16 16 15 15 15 15 15 15 15 14 14 14 14 13 14 13 13 13 13 13 13 13 13 13 13 13 13 13 13 13 13 13 13 13 13 13 13 13 13 13 13 13
16 15 15 15 15 15 15 15 14 14 14 14 13 13 13 13 13 13 13 12 12 13 13 13 13 13 13 13 13 13 12 13 13 13 13 13 13 13 13 12 13 13 12
15 15 15 15 15 15 15 14 14 14 14 13 13 13 13 13 13 13 12 12 12 12 12 12 12 12 13 13 13 13 12 13 13 13 13 12 12 12 12 12 12 12 12
Wind_Speed
0 0 0 1 1 0 1 1 1 1 2 3 3 3 4 3 4 4 4 9 9 9 9 9 10 10 10 10 10 9 9 10 10 10 10 10 10 10 9 9 9 9 9
1 1 1 1 1 1 1 1 1 2 2 2 3 3 4 4 3 4 3 7 10 10 10 10 10 10 11 11 10 10 10 10 10 10 11 11 10 10 10 9 9 9 9
2 2 2 2 1 1 2 2 2 2 3 2 2 3 3 3 3 4 4 4 7 11 11 11 10 11 11 11 11 10 10 10 10 11 11 12 11 11 10 10 9 9 9
2 3 2 2 1 2 2 2 2 2 2 2 2 2 3 3 4 5 5 5 5 5 10 12 10 11 11 12 12 11 11 11 11 11 11 12 13 12 12 11 11 10 10
3 3 2 1 3 2 2 2 1 2 2 2 3 3 3 3 3 4 4 5 5 5 5 10 12 11 11 12 12 12 12 12 12 12 13 12 13 13 13 13 12 11 11
4 4 3 2 3 2 2 2 2 2 3 3 3 2 3 3 4 3 4 4 4 5 5 5 8 11 13 12 12 12 12 12 13 13 13 13 13 13 14 14 13 13 12
4 4 3 2 3 3 3 4 3 3 3 3 3 3 3 4 3 3 3 3 3 3 4 4 5 5 8 15 14 13 12 12 12 13 13 13 13 14 13 14 14 13 13
4 4 3 3 3 3 3 3 3 3 3 3 3 3 2 3 4 3 3 3 3 3 3 4 4 5 6 6 10 14 13 13 12 12 12 12 13 14 14 13 14 14 13
4 3 3 3 3 4 3 3 4 4 3 3 3 3 3 2 2 3 3 3 3 3 3 3 4 4 5 6 6 11 12 12 12 12 12 12 12 13 14 14 13 13 13
3 3 3 3 4 3 3 4 2 3 4 4 3 3 4 3 3 2 3 2 3 3 3 3 3 3 4 4 4 3 8 9 10 11 12 12 13 13 13 13 13 13 13
2 2 2 2 3 3 3 3 2 3 3 4 3 3 3 3 5 4 3 3 3 3 2 3 3 2 3 4 4 4 7 8 9 10 10 11 13 14 14 13 13 13 13
2 2 1 2 2 2 2 3 2 2 2 3 3 3 3 3 3 3 4 4 3 3 2 2 3 2 3 4 3 3 5 7 8 9 10 11 11 12 13 12 13 13 12
2 2 2 1 2 2 2 2 2 2 2 3 4 3 3 3 4 4 4 5 4 3 3 3 3 2 3 3 2 3 5 6 7 7 8 9 9 9 9 10 10 11 11
2 1 2 2 2 2 2 2 2 2 2 3 3 3 3 3 3 4 4 4 5 4 3 3 3 3 3 2 1 4 4 5 6 6 7 7 7 8 8 9 9 9 9
2 2 2 2 2 2 2 3 2 2 2 3 3 3 3 3 3 3 4 5 5 5 4 3 3 2 3 3 2 3 3 4 6 6 7 7 7 8 8 9 9 9 9
2 3 3 3 3 2 2 2 2 2 3 3 3 3 4 3 3 3 4 4 5 6 5 4 3 3 3 4 2 4 4 5 8 7 7 7 7 8 8 9 9 9 9
3 3 3 3 3 3 2 2 3 2 3 3 3 3 3 4 4 3 3 4 4 4 5 5 4 3 3 5 3 4 5 5 4 7 7 7 7 7 8 8 8 9 9
4 4 4 4 4 3 3 3 3 2 3 4 4 4 4 3 3 4 4 4 4 4 6 6 6 4 4 5 4 5 5 4 4 5 7 7 7 6 7 7 7 8 8
5 5 5 4 4 3 3 3 3 3 3 3 4 4 4 4 4 4 4 4 5 4 5 6 6 4 5 4 4 5 5 4 5 4 7 7 6 6 6 6 6 7 7
5 5 5 5 4 4 4 3 2 2 2 3 3 3 4 4 5 5 4 5 5 5 5 6 6 5 4 4 4 5 4 4 4 4 2 3 5 7 7 6 6 6 6
5 4 5 4 4 4 3 2 2 2 2 3 3 3 3 2 3 4 5 4 5 5 5 5 5 5 4 4 4 5 5 4 3 3 3 2 2 2 3 5 6 6 6
4 4 4 4 4 2 3 1 2 2 2 3 3 3 3 3 3 4 3 4 5 6 6 6 5 5 5 5 5 5 5 5 4 2 3 3 2 2 1 1 3 4 5
5 4 4 4 4 2 4 2 2 3 3 3 3 3 4 2 2 3 3 5 5 5 6 6 6 7 6 6 6 6 5 6 5 4 4 5 3 3 2 1 6 5 4
4 4 4 4 3 3 4 3 3 4 4 4 3 3 4 4 4 4 5 4 5 4 4 5 6 6 6 6 6 7 6 6 6 4 4 5 4 3 2 1 6 6 6
4 5 4 5 5 4 4 3 4 4 4 4 4 3 4 4 3 4 5 5 5 5 3 4 4 5 6 6 6 5 6 5 5 4 3 4 4 3 2 2 3 7 6
4 4 4 5 5 4 4 4 5 5 4 4 4 4 2 2 2 3 4 5 5 5 5 4 4 6 6 5 5 5 6 6 5 4 2 3 4 3 3 2 0 1 3
Wind_Direction
242 261 330 300 277 211 197 208 217 205 228 226 237 225 240 245 241 240 173 170 194 208 214 216 214 214 215 214 212 209 209 210 212 212 212 213 214 217 218 218 220 222 224
241 261 237 260 263 270 307 276 246 246 251 251 248 242 245 237 222 239 226 180 189 203 212 216 215 214 214 215 214 213 214 214 212 213 213 212 214 217 219 223 226 228 229
250 265 263 249 238 242 226 237 245 247 246 243 240 247 243 238 231 234 240 228 198 194 204 214 219 216 215 215 215 217 216 215 217 219 219 217 217 218 218 221 226 229 228
249 260 261 264 263 258 238 231 239 253 263 268 251 247 239 225 232 230 233 228 229 214 197 201 215 219 219 217 215 217 218 218 221 223 223 221 222 222 221 222 226 229 227
241 256 273 287 258 250 256 257 252 271 265 271 250 228 234 231 232 231 235 235 229 233 226 186 203 215 218 217 217 219 222 222 223 225 226 224 223 224 223 224 226 229 228
237 262 261 259 261 248 250 266 269 263 268 260 270 264 248 236 231 226 238 230 225 230 234 227 210 207 209 214 218 221 225 227 227 227 227 227 227 226 225 224 225 227 227
236 247 276 265 263 254 261 262 263 252 255 252 258 253 239 224 221 216 230 245 239 239 239 235 240 235 209 207 213 221 225 228 231 229 228 228 228 227 226 224 224 225 227
239 230 242 260 268 269 258 259 256 266 263 252 263 259 240 214 218 221 223 227 249 242 235 230 237 238 249 220 204 210 222 227 232 231 230 230 230 228 227 226 226 226 227
244 264 252 261 270 270 259 257 253 250 259 259 258 270 266 261 251 216 227 233 242 251 249 244 237 236 239 240 219 203 213 223 229 233 233 232 231 230 227 227 227 227 227
247 249 253 260 270 278 267 256 254 264 258 261 249 260 278 294 271 251 220 218 230 240 258 267 262 233 237 238 224 206 201 216 228 234 236 234 232 229 227 228 229 228 229
236 258 264 259 262 273 280 285 285 275 262 267 268 254 251 245 248 260 267 261 251 243 245 258 281 267 251 241 235 206 195 212 224 232 235 237 235 229 227 228 231 231 230
219 236 249 263 267 274 267 264 267 257 274 282 282 279 268 263 265 265 267 262 264 255 251 255 258 260 253 247 239 155 194 213 223 230 232 235 234 231 230 232 233 233 233
225 226 249 247 264 266 270 274 266 280 263 265 267 273 278 282 287 282 279 283 282 271 249 244 244 249 255 256 232 172 205 214 224 227 229 232 231 229 228 230 233 235 236
248 236 238 236 248 250 259 264 263 263 261 259 264 276 273 280 288 280 275 279 279 270 249 260 265 253 258 256 235 215 223 198 216 223 225 230 233 230 229 229 230 234 235
228 221 234 227 237 243 256 264 271 276 277 272 266 254 266 270 268 274 275 275 279 285 284 260 258 270 264 244 218 244 250 187 200 213 221 225 231 232 233 231 231 232 234
226 225 228 227 232 234 232 248 254 266 273 278 288 295 283 277 279 274 277 279 280 282 286 297 289 290 299 278 221 259 260 212 206 207 216 223 230 234 233 230 229 229 230
216 222 226 229 232 235 234 242 264 268 271 279 282 275 274 288 281 278 282 287 285 280 278 286 293 297 286 282 282 268 260 251 224 195 211 223 229 234 231 225 228 225 224
215 216 224 226 229 229 232 238 253 271 277 280 279 274 271 270 278 284 287 285 283 280 275 280 287 287 275 269 271 269 265 257 258 190 194 212 225 230 227 221 219 222 224
212 221 222 222 221 220 225 233 247 260 273 282 279 272 274 280 281 288 285 284 280 277 275 275 279 283 279 279 278 270 270 270 265 212 192 207 219 223 225 223 221 218 219
212 218 220 219 218 221 224 227 242 267 281 293 290 279 278 280 280 283 278 278 284 286 276 275 281 282 280 282 277 278 277 262 269 281 257 217 202 205 215 218 219 218 219
214 213 218 216 216 218 216 212 235 240 270 288 292 286 279 293 315 297 295 297 289 282 282 282 285 289 296 304 295 291 285 283 277 289 281 267 228 225 213 209 215 218 220
216 214 220 217 218 222 89 77 263 253 258 265 277 285 271 242 236 232 274 300 302 286 291 291 288 296 303 300 302 294 295 289 285 296 286 277 269 264 268 244 159 176 201
209 211 213 211 207 162 131 157 238 254 253 260 269 275 279 291 279 275 244 229 248 253 262 277 288 294 298 304 302 291 290 288 288 289 281 279 272 266 261 169 146 163 183
206 207 207 203 199 179 156 179 220 236 249 255 260 268 279 290 300 307 290 287 284 277 260 259 279 286 294 303 292 282 279 274 270 264 264 271 273 271 264 180 150 165 179
207 213 206 201 203 192 175 195 240 244 242 250 253 255 263 274 325 311 281 280 286 286 247 233 266 277 297 297 289 280 274 270 276 276 266 269 276 273 266 241 163 172 185
210 215 208 210 210 206 175 200 246 248 242 245 241 235 215 260 307 298 276 280 284 292 299 288 256 249 260 257 237 256 274 273 276 282 282 270 277 280 270 248 199 162 188
Height
1559 1560 1559 1559 1559 1559 1560 1559 1560 1560 1560 1560 1561 1561 1561 1561 1561 1562 1561 1560 1560 1561 1561 1561 1561 1562 1562 1562 1562 1563 1563 1563 1563 1564 1565 1565 1566 1566 1567 1568 1568 1569 1570
1559 1559 1559 1558 1559 1559 1559 1559 1559 1559 1559 1560 1560 1560 1560 1560 1560 1560 1560 1560 1559 1559 1559 1559 1560 1560 1560 1560 1561 1561 1561 1561 1562 1562 1563 1563 1564 1564 1565 1566 1566 1567 1568
1558 1558 1558 1558 1558 1558 1557 1558 1558 1558 1558 1559 1558 1558 1558 1558 1559 1558 1559 1559 1559 1558 1557 1558 1558 1558 1558 1558 1558 1559 1559 1559 1560 1560 1561 1561 1562 1562 1563 1563 1564 1565 1566
1557 1557 1558 1558 1557 1557 1557 1557 1557 1557 1557 1557 1557 1557 1557 1557 1557 1557 1557 1557 1557 1557 1556 1556 1556 1556 1556 1556 1556 1556 1557 1557 1557 1558 1558 1559 1559 1560 1560 1561 1562 1562 1563
1557 1557 1557 1556 1556 1556 1556 1556 1556 1556 1556 1556 1556 1555 1556 1555 1555 1555 1555 1555 1555 1555 1555 1554 1553 1554 1554 1554 1554 1554 1554 1554 1555 1555 1555 1556 1556 1557 1558 1558 1559 1560 1560
1556 1556 1556 1555 1555 1555 1555 1554 1554 1554 1554 1554 1555 1554 1554 1554 1554 1554 1554 1554 1554 1553 1553 1553 1552 1552 1551 1551 1552 1552 1552 1552 1552 1552 1553 1553 1553 1554 1555 1555 1556 1557 1557
1555 1554 1555 1554 1554 1554 1553 1553 1553 1553 1553 1553 1553 1553 1552 1552 1552 1552 1552 1552 1552 1551 1551 1550 1550 1550 1550 1549 1549 1549 1549 1549 1549 1550 1550 1550 1550 1551 1552 1552 1553 1554 1554
1553 1554 1553 1553 1553 1552 1552 1552 1551 1552 1552 1551 1552 1551 1551 1552 1550 1550 1550 1550 1549 1549 1549 1548 1547 1547 1547 1547 1546 1546 1546 1546 1547 1547 1547 1547 1548 1548 1549 1549 1550 1551 1551
1551 1551 1551 1551 1551 1551 1551 1550 1549 1550 1550 1550 1550 1550 1550 1548 1549 1549 1548 1548 1547 1547 1547 1546 1545 1545 1544 1544 1544 1543 1543 1543 1544 1544 1544 1545 1545 1545 1546 1546 1547 1547 1548
1549 1549 1549 1549 1549 1550 1549 1549 1548 1548 1548 1548 1548 1547 1548 1547 1547 1546 1546 1546 1545 1545 1545 1544 1544 1542 1542 1541 1541 1540 1540 1540 1540 1541 1541 1541 1542 1542 1542 1543 1544 1544 1544
1547 1547 1547 1547 1547 1547 1547 1546 1546 1546 1546 1546 1547 1546 1546 1545 1545 1545 1544 1544 1544 1543 1542 1542 1541 1541 1540 1539 1538 1538 1537 1537 1538 1538 1538 1538 1538 1538 1539 1540 1540 1541 1541
1545 1545 1545 1545 1545 1545 1544 1544 1544 1544 1544 1544 1544 1544 1544 1544 1543 1543 1542 1542 1541 1541 1540 1539 1539 1539 1538 1538 1537 1536 1535 1535 1534 1534 1534 1534 1534 1535 1535 1535 1536 1537 1537
1544 1543 1543 1543 1543 1543 1543 1542 1542 1542 1542 1542 1542 1542 1542 1542 1541 1541 1540 1540 1539 1539 1538 1537 1537 1536 1536 1535 1534 1533 1532 1532 1531 1531 1531 1531 1531 1531 1531 1531 1532 1532 1533
1542 1541 1541 1541 1541 1541 1541 1541 1541 1540 1540 1539 1539 1539 1539 1539 1539 1539 1539 1538 1537 1536 1535 1535 1535 1534 1534 1533 1532 1531 1530 1529 1529 1528 1528 1527 1527 1527 1527 1528 1528 1528 1529
1540 1540 1539 1539 1539 1539 1539 1539 1539 1538 1538 1538 1538 1537 1536 1536 1536 1536 1536 1536 1536 1534 1533 1532 1532 1532 1531 1530 1529 1528 1527 1526 1525 1525 1524 1524 1524 1523 1523 1524 1524 1524 1525
1538 1538 1538 1538 1537 1537 1537 1537 1537 1536 1536 1535 1535 1534 1533 1534 1534 1534 1533 1533 1533 1532 1531 1530 1530 1529 1528 1527 1526 1525 1524 1523 1522 1522 1521 1521 1521 1520 1520 1520 1520 1520 1520
1535 1536 1536 1536 1536 1535 1535 1535 1535 1535 1534 1533 1533 1532 1531 1530 1531 1531 1530 1530 1530 1529 1528 1527 1527 1526 1524 1523 1523 1522 1521 1521 1520 1519 1518 1518 1517 1517 1516 1516 1515 1515 1516
1533 1533 1534 1534 1534 1534 1533 1533 1533 1533 1532 1531 1530 1529 1529 1529 1528 1527 1527 1527 1526 1525 1525 1524 1524 1523 1522 1520 1519 1518 1518 1518 1517 1516 1515 1514 1514 1513 1512 1512 1511 1511 1511
1530 1531 1531 1531 1531 1531 1531 1531 1531 1530 1529 1528 1527 1527 1526 1526 1525 1525 1524 1524 1523 1523 1522 1521 1520 1520 1519 1518 1516 1516 1515 1514 1514 1513 1511 1510 1510 1509 1509 1508 1508 1507 1507
1527 1528 1528 1529 1529 1529 1529 1529 1528 1527 1526 1526 1525 1524 1523 1523 1523 1522 1522 1521 1520 1520 1519 1518 1518 1517 1516 1515 1514 1513 1512 1511 1510 1510 1508 1507 1506 1505 1505 1504 1504 1504 1504
1525 1525 1525 1526 1526 1526 1526 1526 1525 1525 1524 1523 1522 1521 1521 1520 1520 1520 1520 1518 1518 1517 1516 1516 1515 1514 1513 1512 1511 1510 1509 1508 1507 1506 1506 1505 1504 1503 1502 1501 1500 1500 1500
1521 1522 1522 1523 1523 1524 1523 1522 1522 1522 1522 1521 1519 1518 1518 1518 1517 1516 1516 1515 1514 1514 1513 1513 1512 1511 1510 1509 1508 1507 1506 1505 1504 1504 1503 1502 1501 1500 1499 1498 1497 1497 1497
1518 1519 1519 1519 1520 1520 1520 1520 1519 1519 1519 1518 1517 1516 1516 1516 1515 1514 1513 1511 1511 1510 1510 1509 1509 1507 1507 1506 1505 1504 1502 1502 1501 1500 1499 1499 1498 1497 1496 1496 1495 1494 1494
1515 1515 1516 1516 1516 1516 1517 1517 1517 1516 1516 1515 1514 1513 1513 1511 1511 1510 1510 1509 1508 1507 1507 1506 1505 1504 1504 1502 1501 1500 1499 1498 1497 1497 1496 1496 1495 1495 1494 1493 1492 1491 1491
1512 1512 1513 1513 1513 1513 1513 1513 1513 1513 1513 1512 1511 1511 1510 1509 1508 1507 1507 1506 1505 1505 1504 1503 1502 1501 1499 1498 1498 1497 1497 1496 1495 1494 1493 1493 1492 1492 1491 1490 1489 1489 1488
1509 1509 1510 1510 1510 1510 1510 1510 1510 1510 1510 1509 1508 1508 1506 1506 1505 1504 1504 1503 1503 1502 1501 1500 1499 1497 1496 1495 1494 1493 1493 1493 1492 1491 1490 1490 1489 1489 1489 1488 1487 1487 1486